Weather History for Haines Junction, YT

Change the Weather History Date:

Wednesday, December 12, 2012

  Actual Average Record
Temperature  
Mean Temperature 7 °F -  
Max Temperature 29 °F - - ()
Min Temperature -9 °F - - ()
Degree Days  
Heating Degree Days 58    
Moisture  
Dew Point 1 °F    
Average Humidity 82    
Maximum Humidity 96    
Minimum Humidity 67    
Precipitation  
Precipitation 0.00 in - - ()
Sea Level Pressure  
Sea Level Pressure 29.49 in    
Wind  
Wind Speed 2 mph ()    
Max Wind Speed 7 mph    
Max Gust Speed -    
T = Trace of Precipitation, MM = Missing Value Source: Averaged Metar Reports

Daily Weather History Graph

Daily Weather History Graph

Search for Another Location

Airport:

Trip Planner

Search our weather history database for the weather conditions in past years. The results will help you decide how hot, cold, wet, or windy it might be!

Date:

Astronomy

Dec. 12, 2012 Rise Set
Actual Time 10:12 AM PST 3:56 PM PST
Civil Twilight 9:12 AM PST 4:56 PM PST
Nautical Twilight 8:14 AM PST 5:54 PM PST
Astronomical Twilight 7:21 AM PST 6:47 PM PST
Moon 9:18 AM PST (12/12) 3:47 PM PST (12/12)
Length of Visible Light 7h 43m
Length of Day
5h 43m
Waning Crescent, 0% of the Moon is Illuminated
Dec 12
Waning Crescent
Dec 13
New
Dec 19
First Quarter
Dec 28
Full
Jan 4
Last Quarter

Hourly Weather History & Observations

Time (PST) Temp. Windchill Dew Point Humidity Pressure Visibility Wind Dir Wind Speed Gust Speed Precip Events Conditions
12:00 AM -8.9 °F - -14.3 °F 77% 29.89 in - East 1.2 mph - N/A   Unknown
1:00 AM -9.2 °F - -14.8 °F 76% 29.86 in - SSE 1.2 mph - N/A   Unknown
2:00 AM -6.0 °F - -11.0 °F 79% 29.85 in - Calm Calm - N/A   Unknown
3:00 AM -5.3 °F - -10.3 °F 79% 29.83 in - Calm Calm - N/A   Unknown
4:00 AM -7 °F - -12 °F 67% 29.79 in - East 1.2 mph - -  
4:00 AM -6.7 °F - -12.3 °F 77% 29.79 in - East 1.2 mph - N/A   Unknown
5:00 AM -4.7 °F - -9.8 °F 79% 29.75 in - South 1.2 mph - N/A   Unknown
6:00 AM -3.8 °F - -8.9 °F 79% 29.70 in - North 2.3 mph - N/A   Unknown
7:00 AM -3.1 °F - -8.0 °F 80% 29.66 in - NE 2.3 mph - N/A   Unknown
8:00 AM -2.4 °F - -6.7 °F 82% 29.63 in - North 2.3 mph - N/A   Unknown
9:00 AM -2.0 °F - -6.7 °F 80% 29.59 in - East 1.2 mph - N/A   Unknown
10:00 AM -2 °F - -7 °F 70% 29.56 in - ENE 2.3 mph - -  
10:00 AM -2.0 °F - -6.9 °F 80% 29.56 in - ENE 2.3 mph - N/A   Unknown
11:00 AM 2.7 °F - -1.8 °F 81% 29.52 in - East 2.3 mph - N/A   Unknown
1:00 PM 6.6 °F - 1.9 °F 81% 29.42 in - SSW 1.2 mph - N/A   Unknown
2:00 PM 12.2 °F 6.1 °F 7.7 °F 82% 29.38 in - NNE 3.5 mph - N/A   Unknown
3:00 PM 11.1 °F - 7.9 °F 87% 29.36 in - West 2.3 mph - N/A   Unknown
4:00 PM 13 °F - 9 °F 77% 29.33 in - ENE 2.3 mph - -  
4:00 PM 12.6 °F - 9.1 °F 86% 29.33 in - ENE 2.3 mph - N/A   Unknown
5:00 PM 11.1 °F - 8.2 °F 88% 29.29 in - East 2.3 mph - N/A   Unknown
6:00 PM 10.0 °F - 7.2 °F 88% 29.26 in - NE 2.3 mph - N/A   Unknown
7:00 PM 11.8 °F - 8.4 °F 86% 29.22 in - NNE 1.2 mph - N/A   Unknown
8:00 PM 17.2 °F 10.2 °F 16.2 °F 96% 29.18 in - NE 4.6 mph - N/A   Unknown
9:00 PM 17.6 °F - 14.7 °F 88% 29.16 in - NNW 2.3 mph - N/A   Unknown
10:00 PM 23 °F - 22 °F 92% 29.12 in - NE 4.6 mph - -  
10:00 PM 23.2 °F 17.2 °F 21.6 °F 94% 29.12 in - NE 4.6 mph - N/A   Unknown
11:00 PM 29.5 °F 22.5 °F 23.9 °F 80% 29.09 in - North 6.9 mph - N/A   Unknown